User: anonymous   Login
Location: Leiter
(44.7178°N, 106.2687°W)
Time: 22:40:07
(UTC+00:00)
Language:

AAUSAT CUBESAT 2 - Orbit

View from above orbital plane
View from above orbital plane
View from above satellite
View from above satellite

Ground track
Ground track

The orbit data is extracted from the following two-line orbital elements,

1 32788U 08021F   22179.52940216  .00001832  00000-0  16151-3 0  9990
2 32788  97.5335 164.4523 0013200  85.2778 274.9951 14.97564959770099
Epoch (UTC): 28 June 2022 12:42:20
Eccentricity: 0.0013200
inclination: 97.5335°
perigee height: 565 km
apogee height: 583 km
right ascension of ascending node: 164.4523°
argument of perigee: 85.2778°
revolutions per day: 14.97564959
mean anomaly at epoch: 274.9951°
orbit number at epoch: 77009

The dashed part of the orbit path shows where the satellite is in the earth's shadow,  

DLR